KJ6WEG Weather Reports


Display with metric or nautical units.
time (UTC)temp
F
wind
direction
speed
MPH
gust
MPH
rain 1hr
in
rain 24hr
in
rain mn
in
humidity
%
barometer
mb
20260507113554 53 182 2.0 5.0 0.00 0.00 0.00 92 1019.4
20260507113057 53 221 1.0 5.0 0.00 0.00 0.00 92 1019.4
20260507112556 53 202 0.0 7.0 0.00 0.00 0.00 92 1019.4
20260507112054 53 178 2.0 7.0 0.00 0.00 0.00 92 1019.4
20260507111553 53 229 1.0 7.0 0.00 0.00 0.00 92 1019.4
20260507111054 53 253 1.0 5.0 0.00 0.00 0.00 92 1019.4
20260507110554 53 240 1.0 4.0 0.00 0.00 0.00 92 1019.4
20260507110054 53 0 0.0 4.0 0.00 0.00 0.00 92 1019.3
20260507105554 53 248 1.0 6.0 0.00 0.00 0.00 92 1019.3
20260507105055 53 223 1.0 6.0 0.00 0.00 0.00 92 1019.4
20260507104557 53 165 0.0 5.0 0.00 0.00 0.00 92 1019.4
20260507104055 53 210 1.0 5.0 0.00 0.00 0.00 92 1019.4
20260507103556 53 213 1.0 5.0 0.00 0.00 0.00 92 1019.4
20260507103056 53 219 1.0 5.0 0.00 0.00 0.00 92 1019.4
20260507102554 53 200 1.0 5.0 0.00 0.00 0.00 92 1019.5
20260507102055 53 223 1.0 5.0 0.00 0.00 0.00 92 1019.5
20260507101557 53 227 0.0 3.0 0.00 0.00 0.00 92 1019.5
20260507101055 53 260 0.0 7.0 0.00 0.00 0.00 92 1019.5
20260507100554 53 213 1.0 7.0 0.00 0.00 0.00 92 1019.4
20260507100058 53 243 1.0 5.0 0.00 0.00 0.00 92 1019.4
20260507095554 53 294 1.0 5.0 0.00 0.00 0.00 92 1019.4
20260507095054 53 204 1.0 5.0 0.00 0.00 0.00 92 1019.5
20260507094553 53 236 0.0 7.0 0.00 0.00 0.00 92 1019.6
20260507094054 53 222 1.0 7.0 0.00 0.00 0.00 92 1019.6
20260507093554 53 220 3.0 7.0 0.00 0.00 0.00 92 1019.7
20260507093058 53 219 2.0 5.0 0.00 0.00 0.00 92 1019.6
20260507092554 53 242 1.0 5.0 0.00 0.00 0.00 92 1019.6
20260507092053 53 238 0.0 7.0 0.00 0.00 0.00 92 1019.6
20260507091559 53 211 2.0 7.0 0.00 0.00 0.00 92 1019.6
20260507091056 53 219 1.0 6.0 0.00 0.00 0.00 92 1019.7
20260507090554 54 209 1.0 6.0 0.00 0.00 0.00 92 1019.7
20260507090106 54 199 1.0 6.0 0.00 0.00 0.00 92 1019.8
20260507085554 54 223 1.0 6.0 0.00 0.00 0.00 92 1019.8
20260507085055 54 218 2.0 7.0 0.00 0.00 0.00 91 1019.8
20260507084555 54 235 1.0 7.0 0.00 0.00 0.00 92 1019.9
20260507084055 54 217 3.0 7.0 0.00 0.00 0.00 92 1019.8
20260507083554 54 192 0.0 5.0 0.00 0.00 0.00 92 1019.9
20260507083058 54 167 2.0 5.0 0.00 0.00 0.00 92 1019.9
20260507082554 54 0 2.0 5.0 0.00 0.00 0.00 92 1019.9
20260507082055 54 251 1.0 5.0 0.00 0.00 0.00 92 1019.9
20260507081557 54 209 1.0 4.0 0.00 0.00 0.00 92 1019.9
20260507081055 54 219 1.0 6.0 0.00 0.00 0.00 92 1020.0
20260507080551 54 148 2.0 6.0 0.00 0.00 0.00 92 1020.0
20260507075558 54 0 1.0 5.0 0.00 0.00 0.00 92 1020.0
20260507075059 54 0 1.0 7.0 0.00 0.00 0.00 92 1019.9
20260507074607 54 200 2.0 7.0 0.00 0.00 0.00 92 1020.0
20260507074053 54 153 1.0 7.0 0.00 0.00 0.00 92 1020.0
20260507073557 55 154 3.0 7.0 0.00 0.00 0.00 92 1020.0
20260507073058 55 208 2.0 7.0 0.00 0.00 0.00 92 1020.1
20260507072555 55 175 3.0 7.0 0.00 0.00 0.00 92 1020.0
20260507072054 55 169 3.0 7.0 0.00 0.00 0.00 92 1020.0
20260507071555 55 241 2.0 7.0 0.00 0.00 0.00 92 1019.9
20260507071056 55 170 1.0 5.0 0.00 0.00 0.00 92 1019.9
20260507070554 55 243 2.0 6.0 0.00 0.00 0.00 92 1020.0
20260507070115 55 239 1.0 7.0 0.00 0.00 0.00 92 1019.9
20260507065555 55 221 2.0 7.0 0.00 0.00 0.00 92 1019.9
20260507065054 55 238 2.0 7.0 0.00 0.00 0.00 92 1019.9
20260507064605 55 164 3.0 7.0 0.00 0.00 0.00 92 1019.9
20260507064056 55 232 2.0 5.0 0.00 0.00 0.00 92 1019.9
20260507063557 55 219 2.0 5.0 0.00 0.00 0.00 92 1019.9
20260507063059 55 223 2.0 9.0 0.00 0.00 0.00 92 1019.9
20260507062555 55 242 2.0 9.0 0.00 0.00 0.00 92 1019.8
20260507062057 55 221 2.0 9.0 0.00 0.00 0.00 92 1019.8
20260507061554 55 215 2.0 7.0 0.00 0.00 0.00 92 1019.9
20260507061057 55 222 2.0 7.0 0.00 0.00 0.00 92 1019.8
20260507060559 55 206 2.0 7.0 0.00 0.00 0.00 92 1019.8
20260507060056 55 221 1.0 5.0 0.00 0.00 0.00 92 1019.8
20260507055554 55 242 2.0 6.0 0.00 0.00 0.00 91 1019.7
20260507055051 55 233 1.0 6.0 0.00 0.00 0.00 91 1019.7
20260507054556 55 242 2.0 8.0 0.00 0.00 0.00 91 1019.7
20260507054055 55 258 2.0 8.0 0.00 0.00 0.00 91 1019.6
20260507053552 55 219 2.0 8.0 0.00 0.00 0.00 91 1019.6
20260507053054 55 236 1.0 5.0 0.00 0.00 0.00 91 1019.6
20260507052555 55 0 2.0 9.0 0.00 0.00 0.00 91 1019.7
20260507052055 55 199 2.0 9.0 0.00 0.00 0.00 91 1019.7
20260507051603 55 214 1.0 9.0 0.00 0.00 0.00 91 1019.6
20260507051054 55 0 3.0 9.0 0.00 0.00 0.00 91 1019.7
20260507050553 55 226 3.0 11.0 0.00 0.00 0.00 91 1019.7
20260507050054 55 219 3.0 11.0 0.00 0.00 0.00 91 1019.7
20260507045556 56 259 3.0 9.0 0.00 0.00 0.00 91 1019.7
20260507045054 56 244 2.0 7.0 0.00 0.00 0.00 90 1019.7
20260507044556 56 165 2.0 8.0 0.00 0.00 0.00 90 1019.7
20260507044054 56 229 3.0 9.0 0.00 0.00 0.00 90 1019.6
20260507043554 56 206 2.0 9.0 0.00 0.00 0.00 90 1019.6
20260507043055 57 218 2.0 8.0 0.00 0.00 0.00 90 1019.6
20260507042554 57 234 1.0 8.0 0.00 0.00 0.00 89 1019.6
20260507042058 57 234 2.0 7.0 0.00 0.00 0.00 89 1019.6
20260507041555 57 225 1.0 4.0 0.00 0.00 0.00 89 1019.5
20260507041052 58 242 1.0 5.0 0.00 0.00 0.00 89 1019.4
20260507040557 58 200 0.0 5.0 0.00 0.00 0.00 89 1019.3
20260507035555 59 213 2.0 6.0 0.00 0.00 0.00 89 1019.2
20260507035054 59 158 2.0 8.0 0.00 0.00 0.00 89 1019.2
20260507034559 59 123 3.0 8.0 0.00 0.00 0.00 89 1019.2
20260507034054 59 138 3.0 8.0 0.00 0.00 0.00 89 1019.0
20260507033555 59 157 2.0 6.0 0.00 0.00 0.00 89 1019.1
20260507033103 59 108 2.0 6.0 0.00 0.00 0.00 89 1018.9
20260507032555 59 149 1.0 5.0 0.00 0.00 0.00 88 1018.9
20260507032054 59 131 1.0 5.0 0.00 0.00 0.00 88 1018.8
20260507031609 59 139 2.0 5.0 0.00 0.00 0.00 88 1018.8
20260507031056 59 166 2.0 5.0 0.00 0.00 0.00 88 1018.8
20260507030554 59 183 0.0 4.0 0.00 0.00 0.00 88 1018.8
20260507030055 59 0 0.0 3.0 0.00 0.00 0.00 87 1018.8
20260507025553 59 0 0.0 3.0 0.00 0.00 0.00 87 1018.8
20260507025054 59 0 0.0 3.0 0.00 0.00 0.00 87 1018.9
20260507024557 59 307 0.0 3.0 0.00 0.00 0.00 87 1018.9
20260507024053 60 176 0.0 7.0 0.00 0.00 0.00 86 1018.9
20260507023554 60 0 1.0 7.0 0.00 0.00 0.00 86 1018.7
20260507023055 60 227 0.0 7.0 0.00 0.00 0.00 86 1018.8
20260507022555 60 235 2.0 7.0 0.00 0.00 0.00 86 1018.7
20260507022055 60 221 2.0 8.0 0.00 0.00 0.00 85 1018.7
20260507021602 60 162 4.0 10.0 0.00 0.00 0.00 85 1018.7
20260507021055 60 0 1.0 10.0 0.00 0.00 0.00 85 1018.8
20260507020555 60 162 3.0 7.0 0.00 0.00 0.00 85 1018.8
20260507015554 61 161 1.0 5.0 0.00 0.00 0.00 84 1018.8
20260507015054 61 255 1.0 7.0 0.00 0.00 0.00 84 1018.7
20260507014559 61 0 1.0 7.0 0.00 0.00 0.00 84 1018.6
20260507014052 61 158 1.0 5.0 0.00 0.00 0.00 84 1018.8
20260507013553 61 188 1.0 5.0 0.00 0.00 0.00 84 1018.7
20260507013117 61 0 1.0 5.0 0.00 0.00 0.00 84 1018.7
20260507012555 61 267 2.0 9.0 0.00 0.00 0.00 84 1018.7
20260507012054 61 133 2.0 9.0 0.00 0.00 0.00 83 1018.6
20260507011612 61 201 3.0 7.0 0.00 0.00 0.00 83 1018.6
20260507011054 62 161 2.0 11.0 0.00 0.00 0.00 83 1018.6
20260507010554 61 0 2.0 11.0 0.00 0.00 0.00 83 1018.7
20260507010109 61 197 4.0 11.0 0.00 0.00 0.00 83 1018.7
20260507005556 61 205 3.0 10.0 0.00 0.00 0.00 83 1018.7
20260507005054 62 209 2.0 7.0 0.00 0.00 0.00 82 1018.7
20260507004605 62 0 1.0 12.0 0.00 0.00 0.00 83 1018.6
20260507004056 62 269 2.0 12.0 0.00 0.00 0.00 83 1018.7
20260507003554 61 211 4.0 12.0 0.00 0.00 0.00 83 1018.7
20260507003059 62 246 4.0 11.0 0.00 0.00 0.00 82 1018.6
20260507002554 62 0 2.0 14.0 0.00 0.00 0.00 83 1018.6
20260507002054 62 259 3.0 14.0 0.00 0.00 0.00 83 1018.6
20260507001558 62 244 4.0 14.0 0.00 0.00 0.00 81 1018.7
20260507001053 62 0 2.0 12.0 0.00 0.00 0.00 82 1018.8
20260507000555 62 223 2.0 12.0 0.00 0.00 0.00 82 1018.7
20260507000057 63 233 3.0 12.0 0.00 0.00 0.00 80 1018.8
20260506235556 63 192 2.0 11.0 0.00 0.00 0.00 81 1018.7
20260506235054 63 263 2.0 11.0 0.00 0.00 0.00 83 1018.9
20260506234558 62 294 3.0 12.0 0.00 0.00 0.00 82 1018.9
20260506234056 62 250 3.0 12.0 0.00 0.00 0.00 82 1018.9
20260506233555 62 248 3.0 10.0 0.00 0.00 0.00 82 1018.9
20260506233105 62 308 4.0 14.0 0.00 0.00 0.00 82 1018.9
20260506232555 62 211 5.0 14.0 0.00 0.00 0.00 81 1018.9
20260506232054 63 264 2.0 11.0 0.00 0.00 0.00 81 1019.0
20260506231605 63 253 4.0 11.0 0.00 0.00 0.00 79 1019.0
20260506231055 64 309 3.0 11.0 0.00 0.00 0.00 79 1019.0
20260506230554 64 267 3.0 11.0 0.00 0.00 0.00 79 1018.9
20260506230105 64 299 2.0 9.0 0.00 0.00 0.00 79 1019.0
20260506225559 64 205 3.0 9.0 0.00 0.00 0.00 79 1019.0
20260506225056 64 230 3.0 9.0 0.00 0.00 0.00 79 1019.2
20260506224555 64 250 4.0 10.0 0.00 0.00 0.00 78 1019.2
20260506224054 64 258 2.0 10.0 0.00 0.00 0.00 79 1019.2
20260506223555 64 251 3.0 10.0 0.00 0.00 0.00 78 1019.3
20260506223057 64 198 3.0 10.0 0.00 0.00 0.00 79 1019.4
20260506222556 64 200 3.0 10.0 0.00 0.00 0.00 78 1019.4
20260506222054 64 252 3.0 10.0 0.00 0.00 0.00 79 1019.5
20260506221600 64 230 2.0 13.0 0.00 0.00 0.00 80 1019.5
20260506221057 63 267 4.0 13.0 0.00 0.00 0.00 80 1019.6
20260506220557 63 289 4.0 12.0 0.00 0.00 0.00 79 1019.6
20260506220059 64 236 4.0 12.0 0.00 0.00 0.00 79 1019.8
20260506215558 65 301 4.0 11.0 0.00 0.00 0.00 77 1019.9
20260506215054 65 169 2.0 10.0 0.00 0.00 0.00 78 1019.9
20260506214601 65 232 4.0 10.0 0.00 0.00 0.00 77 1019.9
20260506214054 65 306 2.0 10.0 0.00 0.00 0.00 77 1019.8
20260506213555 65 290 4.0 9.0 0.00 0.00 0.00 77 1019.9
20260506213057 66 238 2.0 9.0 0.00 0.00 0.00 76 1020.0
20260506212554 66 200 3.0 9.0 0.00 0.00 0.00 75 1019.9
20260506212055 66 285 3.0 10.0 0.00 0.00 0.00 75 1019.9
20260506211607 66 0 2.0 10.0 0.00 0.00 0.00 75 1019.9
20260506211055 66 205 2.0 9.0 0.00 0.00 0.00 76 1020.0
20260506210555 66 262 3.0 9.0 0.00 0.00 0.00 74 1019.9
20260506210054 67 202 2.0 9.0 0.00 0.00 0.00 74 1019.8
20260506205554 67 248 2.0 9.0 0.00 0.00 0.00 74 1019.9
20260506205054 67 234 2.0 9.0 0.00 0.00 0.00 73 1019.9
20260506204600 67 241 1.0 7.0 0.00 0.00 0.00 73 1020.0
20260506204058 67 215 0.0 7.0 0.00 0.00 0.00 74 1019.9
20260506203555 67 244 1.0 7.0 0.00 0.00 0.00 74 1020.0
20260506203059 67 240 1.0 7.0 0.00 0.00 0.00 73 1020.0
20260506202555 67 245 1.0 6.0 0.00 0.00 0.00 74 1020.1
20260506202055 67 220 1.0 6.0 0.00 0.00 0.00 73 1020.1
20260506201553 66 0 2.0 6.0 0.00 0.00 0.00 74 1020.2
20260506201051 66 209 1.0 5.0 0.00 0.00 0.00 72 1020.3
20260506200555 66 248 0.0 5.0 0.00 0.00 0.00 73 1020.3
20260506200055 66 300 1.0 7.0 0.00 0.00 0.00 75 1020.3
20260506195556 65 0 2.0 7.0 0.00 0.00 0.00 74 1020.4
20260506195056 65 0 1.0 5.0 0.00 0.00 0.00 74 1020.4
20260506194556 65 238 2.0 4.0 0.00 0.00 0.00 73 1020.4
20260506194055 65 223 0.0 5.0 0.00 0.00 0.00 75 1020.4
20260506193554 64 259 1.0 5.0 0.00 0.00 0.00 75 1020.5
20260506193055 64 276 0.0 3.0 0.00 0.00 0.00 75 1020.5
20260506192554 64 194 0.0 3.0 0.00 0.00 0.00 76 1020.6
20260506192056 63 215 1.0 5.0 0.00 0.00 0.00 76 1020.6
20260506191553 63 223 1.0 6.0 0.00 0.00 0.00 77 1020.6
20260506191054 62 0 2.0 6.0 0.00 0.00 0.00 77 1020.6
20260506190554 62 214 1.0 6.0 0.00 0.00 0.00 77 1020.7
20260506190058 62 244 2.0 8.0 0.00 0.00 0.00 75 1020.8
20260506185556 63 216 1.0 8.0 0.00 0.00 0.00 74 1020.7
20260506185054 64 217 1.0 5.0 0.00 0.00 0.00 74 1020.8
20260506184601 64 300 2.0 5.0 0.00 0.00 0.00 73 1020.8
20260506184056 64 0 1.0 7.0 0.00 0.00 0.00 74 1020.7
20260506183554 64 259 1.0 7.0 0.00 0.00 0.00 74 1020.8
20260506183056 64 248 2.0 7.0 0.00 0.00 0.00 73 1021.0
20260506182554 64 233 2.0 7.0 0.00 0.00 0.00 73 1020.9
20260506182055 64 0 2.0 7.0 0.00 0.00 0.00 74 1021.0
20260506181556 64 263 3.0 7.0 0.00 0.00 0.00 73 1020.8
20260506181056 64 0 1.0 5.0 0.00 0.00 0.00 74 1020.8
20260506180556 64 284 0.0 7.0 0.00 0.00 0.00 75 1020.8
20260506180059 63 310 1.0 7.0 0.00 0.00 0.00 75 1020.8
20260506175557 63 214 2.0 7.0 0.00 0.00 0.00 75 1020.9
20260506175054 63 250 1.0 7.0 0.00 0.00 0.00 75 1020.8
20260506174554 63 0 1.0 6.0 0.00 0.00 0.00 75 1020.8
20260506174055 63 250 1.0 5.0 0.00 0.00 0.00 76 1020.8
20260506173555 63 238 2.0 5.0 0.00 0.00 0.00 75 1020.9
20260506173108 64 207 1.0 4.0 0.00 0.00 0.00 75 1020.9
20260506172555 63 273 0.0 5.0 0.00 0.00 0.00 77 1021.0
20260506172054 63 0 0.0 5.0 0.00 0.00 0.00 78 1021.0
20260506171602 62 0 1.0 6.0 0.00 0.00 0.00 78 1021.1
20260506171057 62 254 2.0 7.0 0.00 0.00 0.00 77 1021.2
20260506170555 62 219 1.0 7.0 0.00 0.00 0.00 76 1021.2
20260506170100 62 0 1.0 5.0 0.00 0.00 0.00 77 1021.2
20260506165555 62 292 0.0 5.0 0.00 0.00 0.00 78 1021.1
20260506165053 62 253 1.0 5.0 0.00 0.00 0.00 79 1020.9
20260506164613 61 295 1.0 5.0 0.00 0.00 0.00 80 1020.9
20260506164054 61 223 1.0 4.0 0.00 0.00 0.00 79 1021.0
20260506163554 61 245 1.0 4.0 0.00 0.00 0.00 80 1021.1
20260506163102 61 0 0.0 4.0 0.00 0.00 0.00 81 1021.1
20260506162555 60 0 0.0 4.0 0.00 0.00 0.00 80 1021.1
20260506162055 60 232 0.0 3.0 0.00 0.00 0.00 80 1021.1
20260506161556 60 216 0.0 3.0 0.00 0.00 0.00 80 1021.0
20260506161055 60 0 0.0 3.0 0.00 0.00 0.00 80 1021.1
20260506160554 60 291 0.0 4.0 0.00 0.00 0.00 80 1021.0
20260506160107 60 0 0.0 4.0 0.00 0.00 0.00 81 1020.9
20260506155555 60 193 1.0 4.0 0.00 0.00 0.00 80 1021.1
20260506155055 60 0 0.0 3.0 0.00 0.00 0.00 80 1021.1
20260506154556 60 236 1.0 3.0 0.00 0.00 0.00 80 1021.1
20260506154055 60 289 1.0 3.0 0.00 0.00 0.00 80 1021.1
20260506153554 60 0 0.0 3.0 0.00 0.00 0.00 81 1021.1
20260506153101 60 219 0.0 3.0 0.00 0.00 0.00 80 1021.1
20260506152555 60 0 0.0 3.0 0.00 0.00 0.00 81 1021.0
20260506152055 60 0 0.0 4.0 0.00 0.00 0.00 80 1021.0
20260506151556 60 303 0.0 4.0 0.00 0.00 0.00 80 1021.0
20260506151055 60 0 0.0 1.0 0.00 0.00 0.00 81 1021.1
20260506150555 59 0 0.0 1.0 0.00 0.00 0.00 83 1021.0
20260506150055 59 0 0.0 1.0 0.00 0.00 0.00 83 1021.0
20260506145558 58 0 0.0 1.0 0.00 0.00 0.00 83 1021.0
20260506145052 58 0 0.0 1.0 0.00 0.00 0.00 85 1021.0
20260506144555 58 0 0.0 1.0 0.00 0.00 0.00 85 1020.9
20260506144052 57 0 0.0 1.0 0.00 0.00 0.00 85 1020.9
20260506143556 57 0 0.0 0.0 0.00 0.00 0.00 85 1020.8
20260506143056 57 0 0.0 0.0 0.00 0.00 0.00 86 1020.8
20260506142556 57 0 0.0 0.0 0.00 0.00 0.00 87 1020.8
20260506142055 57 0 0.0 0.0 0.00 0.00 0.00 87 1020.8
20260506141612 56 0 0.0 0.0 0.00 0.00 0.00 87 1020.7
20260506141057 56 0 0.0 0.0 0.00 0.00 0.00 88 1020.5
20260506140558 56 0 0.0 0.0 0.00 0.00 0.00 88 1020.4
20260506140056 55 0 0.0 0.0 0.00 0.00 0.00 88 1020.4
20260506135555 55 0 0.0 0.0 0.00 0.00 0.00 87 1020.3
20260506135056 55 0 0.0 0.0 0.00 0.00 0.00 87 1020.3
20260506134558 55 0 0.0 0.0 0.00 0.00 0.00 87 1020.3
20260506134138 55 0 0.0 0.0 0.00 0.00 0.00 87 1020.2
20260506133554 55 0 0.0 0.0 0.00 0.00 0.00 87 1020.2
20260506133105 55 0 0.0 0.0 0.00 0.00 0.00 87 1020.2
20260506132555 55 0 0.0 0.0 0.00 0.00 0.00 87 1020.2
20260506132054 55 0 0.0 0.0 0.00 0.00 0.00 87 1020.1
20260506131556 55 0 0.0 0.0 0.00 0.00 0.00 87 1020.1
20260506131055 55 0 0.0 0.0 0.00 0.00 0.00 87 1020.0
20260506130556 55 0 0.0 0.0 0.00 0.00 0.00 86 1019.9
20260506130056 55 0 0.0 0.0 0.00 0.00 0.00 86 1019.9
20260506125554 55 0 0.0 0.0 0.00 0.00 0.00 86 1020.0
20260506125054 55 0 0.0 0.0 0.00 0.00 0.00 86 1020.0
20260506124555 55 0 0.0 0.0 0.00 0.00 0.00 86 1019.9
20260506124054 55 0 0.0 0.0 0.00 0.00 0.00 86 1019.7
20260506123555 55 0 0.0 0.0 0.00 0.00 0.00 86 1019.8
20260506123055 55 0 0.0 0.0 0.00 0.00 0.00 86 1019.8
20260506122556 55 0 0.0 0.0 0.00 0.00 0.00 86 1019.8
20260506122054 55 0 0.0 0.0 0.00 0.00 0.00 86 1019.8
20260506121602 55 0 0.0 0.0 0.00 0.00 0.00 86 1019.7
20260506121054 55 0 0.0 0.0 0.00 0.00 0.00 86 1019.7
20260506120555 55 0 0.0 0.0 0.00 0.00 0.00 86 1019.7
20260506120118 55 0 0.0 0.0 0.00 0.00 0.00 86 1019.7
20260506115554 55 0 0.0 0.0 0.00 0.00 0.00 86 1019.7
20260506115055 55 0 0.0 0.0 0.00 0.00 0.00 86 1019.7
20260506114600 55 0 0.0 0.0 0.00 0.00 0.00 86 1019.6
20260506114055 55 0 0.0 1.0 0.00 0.00 0.00 85 1019.5